TimePST,TemperatureF,Dew PointF,Humidity,Sea Level PressureIn,VisibilityMPH,Wind Direction,Wind SpeedMPH,Gust SpeedMPH,PrecipitationIn,Events,Conditions,WindDirDegrees,DateUTC
12:53 AM,66.0,21.9,19,30.07,10.0,ENE,8.1,-,N/A,,Clear,70,2014-01-24 08:53:00
1:53 AM,66.9,21.0,17,30.08,10.0,ENE,10.4,-,N/A,,Clear,60,2014-01-24 09:53:00
2:53 AM,68.0,19.9,16,30.09,10.0,East,9.2,-,N/A,,Clear,90,2014-01-24 10:53:00
3:53 AM,57.0,27.0,32,30.10,10.0,Calm,Calm,-,N/A,,Clear,0,2014-01-24 11:53:00
4:53 AM,50.0,30.9,48,30.12,10.0,WNW,4.6,-,N/A,,Clear,300,2014-01-24 12:53:00
5:53 AM,48.0,28.9,48,30.13,10.0,NW,4.6,-,N/A,,Clear,310,2014-01-24 13:53:00
6:53 AM,48.0,26.1,42,30.14,10.0,NW,5.8,-,N/A,,Clear,320,2014-01-24 14:53:00
7:53 AM,48.9,26.1,41,30.15,10.0,NW,5.8,-,N/A,,Clear,310,2014-01-24 15:53:00
8:53 AM,54.0,27.0,35,30.17,10.0,NW,4.6,-,N/A,,Clear,320,2014-01-24 16:53:00
9:53 AM,59.0,28.9,32,30.20,10.0,NW,8.1,-,N/A,,Clear,310,2014-01-24 17:53:00
10:53 AM,66.0,28.0,24,30.21,10.0,NW,6.9,-,N/A,,Clear,320,2014-01-24 18:53:00
11:53 AM,69.1,30.9,24,30.21,10.0,NW,8.1,-,N/A,,Clear,310,2014-01-24 19:53:00
12:53 PM,72.0,26.1,18,30.20,10.0,WNW,6.9,-,N/A,,Clear,290,2014-01-24 20:53:00
1:53 PM,73.0,24.1,16,30.19,10.0,West,4.6,-,N/A,,Clear,270,2014-01-24 21:53:00
2:53 PM,73.9,23.0,15,30.19,10.0,Calm,Calm,-,N/A,,Clear,0,2014-01-24 22:53:00
3:53 PM,73.9,23.0,15,30.20,10.0,Calm,Calm,-,N/A,,Clear,0,2014-01-24 23:53:00
4:53 PM,70.0,26.1,19,30.21,10.0,West,3.5,-,N/A,,Clear,280,2014-01-25 00:53:00
5:53 PM,63.0,28.0,27,30.22,10.0,NNW,3.5,-,N/A,,Clear,340,2014-01-25 01:53:00
6:53 PM,57.9,30.0,35,30.24,10.0,ENE,3.5,-,N/A,,Clear,60,2014-01-25 02:53:00
7:53 PM,60.1,27.0,28,30.25,10.0,Calm,Calm,-,N/A,,Clear,0,2014-01-25 03:53:00
8:53 PM,55.9,28.0,34,30.25,10.0,ENE,4.6,-,N/A,,Clear,70,2014-01-25 04:53:00
9:53 PM,55.0,28.0,35,30.27,10.0,ENE,4.6,-,N/A,,Clear,70,2014-01-25 05:53:00
10:53 PM,53.1,28.9,40,30.28,10.0,NW,3.5,-,N/A,,Clear,310,2014-01-25 06:53:00
11:53 PM,46.0,32.0,58,30.28,10.0,WNW,3.5,-,N/A,,Clear,290,2014-01-25 07:53:00